Regional Weather Roundup
Issued by NWS

Home | Current Version | Previous Version | Graphics & Text | Print | Product List | Glossary On
Versions: 1 2 3 4 5 6 7 8 9 10 11 12 13 14 15 16 17 18 19 20 21 22 23 24 25 26 27 28 29 30 31 32 33 34 35 36 37 38 39 40 41 42 43 44 45 46 47 48 49 50
000
ASUS45 KCYS 201310
RWRWY

WYOMING REGIONAL WEATHER ROUNDUP
NATIONAL WEATHER SERVICE CHEYENNE WY
600 AM MST MON FEB 20 2017

NOTE:  "FAIR" INDICATES FEW OR NO CLOUDS BELOW 12,000 FEET
WITH NO SIGNIFICANT WEATHER AND/OR OBSTRUCTIONS TO VISIBILITY.

WYZ001-201400-
YELLOWSTONE NATIONAL PARK

CITY           SKY/WX    TMP DP  RH WIND       PRES   REMARKS
LK YELLOWSTONE   N/A     23  22  96 W3        29.91S
W YELLOWSTONE  NOT AVBL

$$
WYZ002>013-054>058-071-098>099-201400-
NORTHERN WYOMING

CITY           SKY/WX    TMP DP  RH WIND       PRES   REMARKS
JACKSON        CLOUDY    28  28 100 W9        29.94S WCI  20
CODY           FAIR      37  18  46 S13       29.86R WCI  29
GREYBULL       FAIR      29  23  78 SE12      29.88S WCI  19
WORLAND        FAIR      29  26  89 SE6       29.90R WCI  23
SHERIDAN       FAIR      36  20  52 SW17      29.84R WCI  26
BUFFALO        FAIR      35  25  66 CALM      29.85R
GILLETTE       FAIR      34  31  88 W10       29.84R WCI  26
HULETT         FAIR      37  34  87 SW6       29.83R WCI  33
NEWCASTLE      FAIR      36  34  93 NW7       29.84R WCI  30

$$
WYZ014>020-022>026-101>103-201400-
CENTRAL WYOMING

CITY           SKY/WX    TMP DP  RH WIND       PRES   REMARKS
BIG PINEY      CLOUDY    12   8  84 E8        30.00S WCI   0
PINEDALE       CLOUDY    12  12 100 NW6       30.01S WCI   3
DUBOIS         CLOUDY    28  21  74 NW12      29.90S WCI  18
LANDER         FAIR      29  16  58 W7        29.91R WCI  22
RIVERTON       FAIR      29  18  63 S7        29.93R WCI  22
CASPER         FAIR      26  17  68 SW6       29.94R WCI  19
DOUGLAS        FAIR      32  18  56 NW15      29.90R WCI  22

$$
WYZ021-027>030-104>119-201400-
SOUTHERN WYOMING

CITY           SKY/WX    TMP DP  RH WIND       PRES   REMARKS
EVANSTON       FAIR      28  23  81 S7        29.98S WCI  21
FORT BRIDGER   FAIR      30  20  66 CALM      30.01S
ROCK SPRINGS   FAIR      30  23  75 SW8       29.99S WCI  22
DIXON            N/A     20  19  93 CALM      30.09R
RAWLINS        FAIR      30  24  78 SW16      30.00R WCI  19
SARATOGA       FAIR      27  27 100 SW7       30.03R WCI  19
LARAMIE        FAIR      32  16  51 NW20G31   29.94R WCI  20
CHEYENNE       FAIR      37  17  44 NW21G32   29.91R WCI  26
TORRINGTON     FAIR      34  18  52 W7        29.87R WCI  28
PINE BLUFFS    FAIR      37  18  44 W28G36    29.88R WCI  25

$$



USA.gov is the U.S. government's official web portal to all federal, state and local government web resources and services.